Regional Weather Roundup
Issued by NWS

Home | Current Version | Previous Version | Graphics & Text | Print | Product List | Glossary On
Versions: 1 2 3 4 5 6 7 8 9 10 11 12 13 14 15 16 17 18 19 20 21 22 23 24 25 26 27 28 29 30 31 32 33 34 35 36 37 38 39 40 41 42 43 44 45 46 47 48 49 50
000
ASUS43 KIND 020959
RWRIN

WEATHER ROUNDUP FOR INDIANA
NATIONAL WEATHER SERVICE INDIANAPOLIS IN
600 AM EDT SUN AUG 02 2015

NOTE: "FAIR" INDICATES FEW OR NO CLOUDS BELOW 12,000 FEET WITH NO
SIGNIFICANT WEATHER AND/OR OBSTRUCTIONS TO VISIBILITY.

* - STATION DOES NOT REPORT WEATHER SUCH AS PRECIPITATION OR FOG.

+ - STATION NOT QUALITY CONTROLLED BY THE NATIONAL WEATHER SERVICE.
    USE DATA WITH CAUTION...ESPECIALLY DEWPOINT AND RELATIVE
    HUMIDITY OBSERVATIONS.

INZ001>003-010>013-019-020-021100-
NORTHWEST INDIANA

CITY           SKY/WX    TMP DP  RH WIND       PRES   REMARKS
GARY /AIRPORT/ PTCLDY    72  66  83 SW7       29.89S
KNOX *+        CLEAR     64  63  94 SW5       29.90S
LA PORTE +     CLEAR     66  66 100 CALM      29.91S
MONTICELLO +   CLEAR     65  64  96 SW7       29.92S
RENSSELAER +   CLEAR     64  63  94 S3        29.92R

$$

LMZ046-743>745-021100-
SOUTHERN LAKE MICHIGAN

STATION/POSITION TIME  TEMP    WIND        PRES    WAVE
                       AIR SEA DIR/SP/G            HT
                 (UTC) (F)     (DEG/KT/KT) (MB)    (FT)
BURNS HARBOR     0900   72     210/  9/ 14 1012.5F
MICHIGAN CITY    0900   71     190/ 12/ 14   N/A
5NW MICH CITY    0900   73 74  230/ 14/ 17   N/A     2

$$

INZ004-005-014>016-021>024-021100-
NORTH CENTRAL INDIANA

CITY           SKY/WX    TMP DP  RH WIND       PRES   REMARKS
GOSHEN         CLEAR     65  62  90 SW6       29.91S
SOUTH BEND     CLEAR     67  63  87 SW5       29.90F
WARSAW +       CLEAR     66  61  82 SW6       29.92S

$$

INZ006>009-017-018-025>027-021100-
NORTHEAST INDIANA

CITY           SKY/WX    TMP DP  RH WIND       PRES   REMARKS
ANGOLA *+      CLEAR     70  63  78 W6        29.91S
FORT WAYNE     PTCLDY    64  61  90 SW7       29.93S

$$

INZ028-029-035-036-043>045-051>053-021100-
WEST CENTRAL INDIANA

CITY           SKY/WX    TMP DP  RH WIND       PRES   REMARKS
CRAWFORDSVL +  CLEAR     61  60  94 S5          N/A
GREENCASTLE +  CLEAR     61  55  82 CALM      29.97S
LAFAYETTE      CLEAR     63  61  93 SW6       29.92F
TERRE HAUTE    CLEAR     62  59  90 CALM      29.95F

$$

INZ030>032-037>040-046>048-054>057-064-065-021100-
CENTRAL INDIANA

CITY           SKY/WX    TMP DP  RH WIND       PRES   REMARKS
FRANKFORT +    CLEAR    N/A N/A N/A S3        29.96S
GREENWOOD *+   CLEAR     63  57  82 CALM      29.97S
INDIANAPOLIS   PTCLDY    64  58  80 SW6       29.95S
-EAGLE CREEK   CLEAR     64  59  83 CALM      29.95F
KOKOMO *+      CLEAR     66  57  72 W8        29.94S
MT COMFORT *+  CLEAR     61 N/A N/A S5        29.97S
SHELBYVILLE    CLEAR     64  60  87 S5        29.96F
ZIONSVILLE +   CLEAR     62  58  85 CALM      29.96S

$$

INZ033-034-041-042-049-050-058-059-021100-
EAST CENTRAL INDIANA

CITY           SKY/WX    TMP DP  RH WIND       PRES   REMARKS
MUNCIE         CLEAR     65  58  78 SW8       29.95F

$$

INZ060-061-067>069-081>083-085>088-021100-
SOUTHWEST INDIANA

CITY           SKY/WX    TMP DP  RH WIND       PRES   REMARKS
EVANSVILLE     CLOUDY    68  65  90 CALM      29.97S
HUNTINGBURG *+ MOCLDY    64  61  88 CALM      29.98S

$$

INZ062-063-066-070>080-084-089>092-021100-
SOUTH CENTRAL AND SOUTHEAST INDIANA

CITY           SKY/WX    TMP DP  RH WIND       PRES   REMARKS
BLOOMINGTON    CLEAR     60  58  92 CALM      29.97F
MADISON *+     MOCLDY    61  59  94 CALM      30.01S
SEYMOUR +      PTCLDY    61  59  94 CALM      29.98F FOG

$$



USA.gov is the U.S. government's official web portal to all federal, state and local government web resources and services.